Temp
-13 -13 -13 -12 -13 -13 -13 -13 -14 -13 -13 -13 -13 -13 -14 -15 -15 -14 -14 -14 -14 -14 -13 -14 -13 -13 -14 -14 -15 -15 -15 -15 -15 -15 -16 -17 -17 -18
-13 -13 -12 -13 -13 -14 -13 -13 -13 -13 -13 -13 -13 -14 -15 -15 -16 -15 -15 -15 -15 -14 -14 -14 -14 -14 -14 -15 -15 -16 -16 -16 -15 -16 -17 -17 -17 -18
-13 -13 -13 -13 -13 -13 -13 -13 -14 -14 -13 -14 -15 -15 -15 -16 -16 -15 -15 -15 -15 -14 -14 -14 -14 -15 -15 -16 -16 -16 -16 -16 -16 -17 -17 -17 -18 -18
-13 -13 -13 -14 -15 -15 -14 -14 -14 -14 -15 -15 -15 -15 -16 -16 -16 -15 -15 -15 -15 -15 -15 -15 -15 -15 -16 -16 -16 -16 -16 -16 -17 -17 -17 -17 -18 -18
-14 -14 -14 -14 -15 -15 -14 -14 -14 -14 -15 -14 -15 -16 -16 -16 -16 -16 -15 -15 -15 -15 -15 -15 -16 -16 -16 -16 -16 -16 -16 -17 -17 -17 -17 -18 -18 -19
-14 -14 -14 -15 -15 -15 -15 -14 -14 -14 -15 -15 -15 -15 -16 -16 -16 -16 -16 -16 -16 -16 -16 -16 -16 -16 -16 -17 -17 -17 -17 -17 -17 -18 -18 -18 -19 -19
-14 -14 -14 -15 -15 -15 -15 -16 -15 -15 -15 -15 -16 -16 -16 -16 -16 -16 -16 -17 -17 -17 -17 -18 -17 -17 -17 -17 -17 -17 -17 -17 -18 -18 -18 -18 -19 -19
-15 -15 -15 -15 -15 -16 -16 -16 -16 -16 -16 -16 -16 -16 -17 -17 -17 -17 -17 -18 -18 -18 -19 -19 -18 -18 -18 -18 -18 -17 -18 -18 -18 -18 -18 -19 -19 -19
-15 -15 -15 -16 -16 -16 -16 -16 -16 -17 -17 -17 -16 -17 -17 -17 -18 -18 -18 -18 -18 -19 -19 -19 -19 -18 -18 -18 -18 -18 -18 -18 -18 -18 -19 -19 -19 -19
-16 -16 -16 -16 -17 -17 -17 -17 -17 -17 -18 -18 -18 -18 -18 -19 -19 -19 -19 -19 -19 -20 -20 -19 -19 -19 -19 -19 -19 -19 -18 -18 -18 -19 -19 -19 -19 -19
-16 -17 -17 -18 -18 -19 -19 -18 -19 -19 -19 -20 -20 -19 -19 -19 -19 -19 -19 -19 -19 -20 -20 -20 -20 -20 -19 -19 -19 -19 -19 -19 -19 -19 -19 -19 -19 -19
-18 -19 -20 -20 -21 -21 -21 -21 -21 -21 -21 -21 -21 -21 -20 -20 -20 -20 -20 -20 -20 -20 -20 -21 -20 -20 -20 -20 -20 -20 -19 -19 -20 -20 -19 -19 -19 -20
-21 -22 -22 -22 -23 -23 -23 -22 -23 -22 -22 -22 -22 -22 -21 -21 -21 -21 -20 -20 -20 -20 -20 -21 -21 -20 -20 -20 -20 -20 -20 -20 -20 -20 -20 -20 -20 -20
-24 -25 -25 -25 -25 -24 -24 -25 -24 -24 -24 -23 -23 -22 -22 -22 -21 -21 -21 -21 -21 -21 -21 -21 -21 -21 -21 -21 -21 -21 -21 -21 -21 -21 -21 -21 -21 -21
-25 -25 -26 -26 -26 -25 -25 -25 -25 -24 -24 -24 -23 -23 -23 -22 -22 -21 -21 -21 -21 -21 -21 -21 -21 -21 -21 -21 -21 -21 -21 -21 -21 -21 -21 -21 -21 -21
-26 -26 -27 -27 -27 -27 -26 -26 -26 -25 -24 -24 -24 -24 -23 -22 -22 -22 -22 -21 -21 -21 -22 -21 -21 -21 -21 -21 -21 -21 -21 -21 -21 -22 -22 -22 -21 -21
-27 -27 -27 -27 -27 -27 -26 -26 -25 -24 -24 -24 -24 -24 -23 -22 -22 -21 -21 -21 -21 -21 -21 -21 -21 -21 -22 -21 -22 -22 -22 -22 -22 -22 -22 -22 -22 -22
-28 -28 -28 -27 -27 -27 -26 -26 -25 -25 -24 -24 -25 -24 -23 -22 -22 -22 -22 -21 -21 -21 -21 -21 -21 -21 -22 -22 -22 -22 -22 -22 -22 -22 -22 -22 -22 -22
-29 -29 -28 -28 -27 -27 -26 -26 -25 -25 -25 -24 -24 -24 -23 -23 -22 -22 -22 -22 -22 -22 -21 -21 -21 -22 -22 -22 -22 -22 -22 -22 -22 -22 -22 -22 -22 -22
-29 -29 -28 -28 -27 -27 -26 -26 -25 -25 -25 -25 -24 -24 -24 -23 -23 -22 -22 -22 -22 -22 -22 -21 -21 -22 -22 -22 -22 -22 -22 -22 -22 -22 -22 -22 -22 -22
-30 -29 -28 -28 -27 -27 -27 -26 -26 -25 -25 -25 -24 -24 -24 -23 -23 -23 -22 -22 -22 -22 -22 -22 -22 -21 -22 -22 -22 -22 -22 -22 -22 -22 -22 -22 -22 -22
-30 -29 -29 -28 -27 -27 -27 -26 -26 -26 -25 -25 -24 -25 -24 -23 -23 -23 -22 -22 -22 -22 -22 -22 -22 -23 -23 -23 -22 -22 -22 -23 -22 -22 -22 -22 -22 -22
-30 -29 -29 -28 -27 -27 -27 -26 -26 -25 -25 -25 -24 -24 -24 -23 -23 -22 -22 -23 -22 -22 -22 -22 -23 -23 -23 -23 -23 -23 -22 -22 -22 -22 -22 -22 -22 -22
Height
5731 5731 5729 5728 5728 5727 5726 5725 5723 5720 5721 5720 5718 5716 5714 5714 5714 5714 5713 5713 5711 5709 5707 5705 5703 5702 5699 5696 5694 5691 5688 5685 5682 5678 5672 5668 5665 5661
5720 5720 5717 5716 5718 5718 5717 5716 5713 5711 5708 5707 5705 5704 5702 5702 5703 5704 5703 5703 5702 5701 5698 5696 5693 5692 5692 5689 5686 5683 5679 5676 5672 5668 5664 5661 5657 5653
5713 5711 5710 5708 5707 5707 5705 5703 5701 5699 5697 5696 5695 5693 5693 5694 5695 5695 5694 5692 5690 5689 5688 5686 5683 5682 5682 5680 5677 5675 5671 5667 5664 5659 5655 5651 5648 5644
5703 5701 5701 5698 5698 5696 5695 5693 5689 5687 5686 5685 5684 5684 5683 5683 5683 5683 5683 5681 5681 5679 5677 5676 5674 5672 5671 5670 5667 5663 5662 5659 5655 5651 5649 5645 5640 5637
5695 5692 5689 5687 5686 5686 5683 5677 5679 5676 5673 5674 5672 5672 5672 5670 5669 5669 5669 5669 5668 5667 5666 5664 5662 5662 5661 5660 5658 5655 5653 5650 5647 5644 5640 5637 5634 5630
5685 5682 5680 5677 5673 5671 5671 5670 5665 5659 5660 5660 5657 5656 5656 5654 5654 5653 5654 5654 5654 5654 5654 5654 5653 5652 5653 5651 5648 5644 5642 5640 5638 5635 5632 5630 5627 5624
5669 5665 5663 5661 5658 5657 5655 5653 5651 5650 5647 5645 5641 5643 5641 5640 5636 5635 5637 5637 5638 5640 5641 5640 5641 5641 5641 5641 5638 5636 5632 5631 5630 5628 5625 5623 5621 5618
5654 5649 5645 5642 5638 5637 5636 5635 5632 5630 5630 5629 5630 5626 5627 5627 5622 5620 5621 5622 5624 5626 5627 5629 5629 5629 5629 5629 5628 5626 5623 5621 5621 5618 5617 5615 5614 5612
5632 5629 5625 5621 5618 5615 5613 5612 5612 5610 5609 5608 5611 5611 5613 5614 5608 5609 5609 5610 5612 5613 5615 5616 5618 5618 5617 5617 5617 5615 5614 5612 5611 5611 5609 5608 5607 5605
5610 5604 5600 5596 5591 5588 5586 5587 5589 5588 5590 5591 5589 5591 5593 5593 5595 5595 5596 5598 5601 5602 5603 5605 5606 5607 5607 5607 5606 5605 5604 5603 5602 5601 5601 5600 5599 5599
5584 5577 5570 5567 5563 5559 5559 5558 5560 5563 5565 5568 5571 5573 5574 5578 5582 5582 5586 5589 5589 5591 5591 5592 5594 5595 5596 5596 5596 5595 5595 5593 5593 5592 5593 5592 5592 5591
5553 5544 5536 5532 5530 5528 5529 5532 5535 5539 5541 5546 5551 5554 5558 5562 5566 5568 5571 5575 5576 5577 5579 5580 5582 5583 5585 5585 5586 5586 5585 5584 5583 5584 5584 5584 5585 5585
5511 5509 5505 5499 5499 5500 5502 5505 5511 5515 5518 5525 5531 5538 5542 5546 5550 5554 5556 5560 5562 5565 5567 5569 5571 5572 5574 5575 5577 5576 5576 5576 5575 5575 5575 5576 5577 5578
5480 5477 5477 5477 5476 5477 5480 5486 5490 5494 5499 5505 5512 5519 5525 5528 5534 5539 5542 5545 5548 5552 5555 5557 5560 5562 5563 5565 5567 5567 5568 5567 5567 5567 5568 5569 5571 5572
5455 5453 5453 5455 5456 5459 5462 5467 5472 5477 5481 5487 5494 5501 5507 5512 5518 5524 5529 5533 5536 5539 5541 5545 5548 5550 5553 5555 5557 5558 5559 5559 5559 5560 5561 5563 5564 5567
5433 5433 5434 5437 5440 5443 5446 5451 5455 5461 5466 5473 5480 5486 5491 5498 5504 5510 5515 5520 5523 5527 5530 5533 5536 5539 5542 5546 5548 5549 5551 5552 5552 5553 5555 5557 5559 5561
5417 5418 5419 5422 5425 5428 5432 5436 5442 5447 5453 5459 5466 5472 5478 5483 5490 5496 5501 5507 5512 5516 5519 5522 5526 5529 5532 5536 5539 5540 5542 5544 5544 5546 5548 5551 5553 5556
5402 5403 5405 5408 5411 5414 5418 5422 5427 5433 5439 5446 5452 5456 5462 5470 5476 5482 5487 5493 5499 5504 5508 5512 5515 5518 5523 5527 5530 5531 5534 5535 5537 5539 5541 5544 5547 5550
5389 5391 5393 5396 5398 5402 5405 5410 5415 5420 5426 5432 5439 5446 5453 5460 5465 5469 5475 5480 5487 5493 5497 5502 5506 5509 5513 5517 5520 5523 5525 5527 5529 5531 5534 5537 5540 5543
5378 5380 5382 5385 5388 5391 5395 5399 5403 5409 5415 5420 5428 5435 5441 5448 5455 5459 5463 5470 5477 5483 5487 5492 5496 5499 5503 5507 5512 5514 5516 5519 5521 5523 5525 5529 5532 5535
5368 5370 5372 5375 5377 5380 5384 5388 5393 5399 5404 5411 5418 5425 5432 5440 5445 5449 5454 5459 5467 5474 5478 5482 5485 5488 5494 5499 5502 5504 5508 5511 5514 5515 5518 5521 5524 5527
5359 5361 5363 5365 5368 5371 5375 5379 5385 5390 5395 5401 5409 5417 5424 5430 5435 5440 5445 5451 5458 5464 5467 5472 5476 5481 5485 5488 5491 5495 5500 5503 5505 5507 5509 5512 5516 5518
5350 5352 5354 5356 5359 5363 5367 5371 5376 5381 5386 5393 5400 5406 5414 5419 5425 5431 5436 5443 5448 5453 5458 5463 5468 5472 5476 5479 5483 5486 5489 5492 5495 5498 5499 5503 5506 5509
Wind_Speed
42 40 47 46 44 46 46 45 48 56 53 56 60 54 44 41 39 39 36 34 34 38 40 41 41 46 44 41 42 44 45 47 48 48 46 41 39 35
36 34 35 38 43 40 40 40 39 43 39 46 52 51 48 49 42 37 39 43 42 43 42 44 43 44 45 42 41 42 43 45 47 44 42 40 38 34
33 38 36 37 39 45 44 42 44 45 43 43 42 41 40 42 47 49 48 45 45 46 46 46 45 43 43 40 40 40 42 43 44 41 41 39 34 32
43 43 45 45 45 42 46 50 51 51 47 48 50 46 43 46 49 53 55 55 53 52 48 47 45 44 40 41 39 38 40 41 40 39 40 37 33 30
51 51 50 51 50 49 49 49 54 59 51 51 61 52 53 57 57 58 60 58 55 55 51 46 44 45 43 40 38 38 39 41 39 37 37 36 32 28
53 55 56 55 54 54 55 60 53 46 61 55 58 66 62 61 68 63 60 60 59 57 53 45 47 47 46 41 39 38 38 38 37 37 35 33 30 27
52 55 57 58 60 63 64 62 65 67 68 55 54 62 54 58 55 62 64 61 54 57 50 49 47 45 44 43 40 40 37 37 38 36 34 31 27 22
61 63 63 64 64 64 65 66 67 68 69 67 69 54 53 61 51 49 56 52 49 50 51 48 47 45 43 43 42 41 38 37 37 34 31 29 26 24
71 69 68 68 69 69 68 70 71 71 69 70 72 72 64 60 50 51 47 46 49 47 46 42 44 45 43 43 42 40 37 36 36 32 28 26 26 24
75 75 75 76 75 73 74 73 74 76 73 72 73 70 70 67 67 66 62 62 56 47 44 43 43 42 42 43 40 37 36 36 34 30 27 25 25 26
81 82 82 82 84 81 81 80 78 78 78 74 72 70 71 67 66 62 60 56 50 48 43 40 42 43 42 41 39 34 34 34 31 27 26 25 24 25
87 87 88 86 82 75 69 71 77 74 73 67 70 60 65 62 58 55 53 52 50 49 47 42 42 40 38 37 35 33 32 31 27 26 26 25 25 22
86 77 69 66 64 64 69 69 64 64 67 67 67 63 60 57 53 53 51 51 50 49 44 41 42 38 34 33 33 31 30 28 26 26 25 24 22 20
64 55 58 66 68 68 65 57 58 58 60 59 60 58 53 51 51 52 51 50 48 46 43 41 40 36 34 32 31 29 28 25 25 26 24 21 18 17
54 52 56 61 64 65 61 54 48 50 51 53 52 51 49 48 49 47 47 46 45 45 43 40 38 37 34 29 30 27 26 25 25 26 24 22 20 19
52 51 56 57 54 49 50 47 43 36 43 48 46 49 45 45 45 43 40 40 43 42 38 38 38 37 31 28 29 25 25 25 24 24 24 24 23 21
51 52 52 50 44 41 40 38 37 35 45 43 44 43 47 47 45 47 48 47 37 35 36 39 41 35 28 28 28 25 25 25 23 23 25 25 25 25
47 46 42 37 35 31 34 37 42 46 50 48 49 54 49 48 49 52 47 47 43 39 37 41 39 31 27 28 28 26 25 24 23 24 27 28 28 28
37 32 31 31 31 32 36 39 41 43 47 36 39 45 45 48 43 35 41 37 34 36 34 30 31 30 28 29 29 26 25 26 24 23 25 29 29 29
29 26 26 27 30 32 34 37 40 42 48 42 44 49 49 35 35 36 37 38 38 37 32 29 32 31 31 31 27 26 26 28 26 26 26 26 28 28
25 24 24 26 30 31 33 34 36 40 42 46 48 46 46 41 31 34 32 38 39 37 28 30 35 36 31 29 27 28 28 26 26 30 30 29 31 30
24 23 24 25 28 31 32 33 34 35 36 38 47 41 34 37 37 36 35 39 35 33 29 29 33 31 29 29 30 30 29 28 29 31 34 32 31 31
22 22 23 25 28 28 28 31 30 29 29 28 30 35 37 36 34 33 36 33 29 27 25 26 30 28 29 30 30 29 31 32 32 30 34 34 34 34
Wind_Direction
264 269 270 268 268 269 277 275 265 272 267 267 269 266 250 247 248 257 261 263 271 274 279 282 282 288 291 292 295 298 302 306 308 310 310 304 300 296
253 270 275 268 262 266 272 272 272 273 270 264 264 260 247 243 249 254 260 267 271 273 276 283 284 289 291 291 293 298 303 306 307 309 307 303 298 296
275 266 271 272 271 266 266 270 270 261 265 263 260 251 250 255 257 260 264 265 267 270 276 280 282 284 285 288 292 299 304 305 306 306 306 302 296 292
265 266 265 262 265 268 268 268 270 261 267 272 267 259 256 255 258 261 262 264 271 275 275 280 281 278 280 285 290 296 301 301 303 304 304 301 295 287
271 271 270 270 269 265 262 263 266 263 259 263 268 259 263 261 264 267 268 268 272 276 277 277 278 278 279 281 288 293 295 297 300 300 302 303 298 284
279 278 277 275 272 269 266 260 262 267 275 271 260 268 269 265 266 266 267 271 272 276 275 276 276 277 277 280 282 287 289 292 295 298 301 299 295 282
283 281 280 279 278 275 271 268 265 264 263 268 264 266 272 268 269 268 271 264 271 274 274 274 276 275 275 278 281 283 285 290 292 297 298 293 290 275
284 281 279 277 276 274 273 271 266 263 263 263 259 263 269 269 271 273 276 271 271 271 272 274 275 275 274 277 279 281 284 287 289 292 290 287 279 273
291 288 283 280 278 275 271 268 266 263 260 259 260 265 265 264 269 270 271 277 274 276 274 272 273 272 273 276 278 281 285 285 287 286 284 282 272 273
292 290 285 280 275 270 268 266 262 260 259 258 258 259 262 261 266 268 274 279 280 274 272 273 271 273 274 274 276 282 282 284 285 280 277 273 274 268
292 287 279 272 269 265 262 260 257 257 257 257 257 257 258 261 264 269 272 274 273 270 267 265 268 270 271 273 277 279 279 281 280 272 268 268 268 263
287 276 275 276 277 273 267 263 261 259 257 257 256 261 259 261 262 263 265 266 266 266 267 266 265 267 270 272 275 275 277 279 274 265 262 262 260 255
295 290 284 277 270 263 258 257 257 254 253 254 254 254 259 260 260 261 261 262 262 264 263 264 266 266 266 270 272 272 276 274 268 262 258 257 252 246
293 279 261 259 261 262 264 265 258 253 252 250 251 251 252 253 256 258 258 258 260 262 262 261 262 260 259 264 266 268 270 268 265 260 251 247 243 237
289 274 264 263 266 265 269 268 260 254 251 250 247 245 245 246 251 255 259 260 259 256 256 256 256 256 256 256 260 261 266 265 260 252 243 240 240 235
283 271 268 269 271 273 271 271 267 258 248 244 242 243 239 242 245 252 251 257 257 255 252 252 254 253 250 250 254 257 262 260 254 248 242 241 240 237
277 271 271 273 274 268 264 259 252 239 237 241 242 237 239 239 237 245 251 247 255 252 249 252 251 248 243 247 249 253 256 255 252 250 245 243 239 235
277 274 273 270 267 262 253 245 242 233 235 238 235 232 247 234 239 241 250 250 246 251 247 249 246 241 239 242 244 249 251 252 249 252 250 245 243 240
279 273 268 262 255 248 245 243 242 237 228 229 237 234 240 243 238 243 240 235 238 240 243 248 252 238 237 238 241 245 249 249 246 246 254 250 242 241
276 265 264 255 248 245 246 245 243 238 236 235 224 231 246 244 246 245 246 233 233 235 243 250 252 236 236 237 239 245 248 248 248 244 241 243 241 238
269 260 258 252 249 248 248 247 246 242 238 236 234 237 243 234 245 242 237 221 226 236 246 247 241 241 237 236 238 241 242 246 252 250 247 245 239 237
261 250 249 249 247 249 250 244 243 242 237 238 231 236 235 237 239 242 236 217 226 235 240 245 245 236 234 234 240 244 244 247 249 255 248 245 241 239
256 243 245 247 247 249 244 239 236 234 228 227 230 228 226 236 224 234 220 217 222 227 236 243 238 230 234 236 242 246 246 245 247 255 250 244 242 243